Terminal Aerodrome Forecast
Issued by NWS

Home | Current Version | Previous Version | Text Only | Print | Product List | Glossary On
Versions: 1 2 3 4 5 6 7 8 9 10 11 12 13 14 15 16 17 18 19 20
000
FTUS45 KRIW 292324
TAFCPR
TAF
KCPR 292324Z 3000/3024 VRB04KT P6SM SCT060
     FM300600 24006KT P6SM SCT090
     FM301500 24010G20KT P6SM FEW060=

USA.gov is the U.S. government's official web portal to all federal, state and local government web resources and services.